Clarksdale Fletcher Field Air, MS

1:13 AM CDT on October 23, 2019 (GMT -0500)
Fletcher

Weather History for KCKM - August, 2019

Change the Weather History Date:

Monday, August 12, 2019

  Actual Average (KUOX) Record (KUOX)
Temperature  
Mean Temperature 86 °F -  
Max Temperature 96 °F 88 °F 105 °F (1954)
Min Temperature 77 °F 66 °F 55 °F (1967)
Cooling Degree Days 22    
Growing Degree Days 36 (Base 50)    
Moisture  
Dew Point 82 °F    
Average Humidity 86    
Maximum Humidity 100    
Minimum Humidity 56    
Precipitation  
Precipitation 0.00 in - - ()
Sea Level Pressure  
Sea Level Pressure 29.92 in    
Wind  
Wind Speed 0 mph (North)    
Max Wind Speed 0 mph    
Max Gust Speed -    
Visibility 9 miles    
Events      
Averages and records for this station are not official NWS values.
T = Trace of Precipitation, MM = Missing Value Source: NWS Daily Summary

Daily Weather History Graph

Daily Weather History Graph

Search for Another Location

Airport or City:

Astronomy

Aug. 12, 2019 Rise Set
Actual Time 6:20 AM CDT 7:52 PM CDT
Civil Twilight 5:54 AM CDT 8:19 PM CDT
Nautical Twilight 5:21 AM CDT 8:51 PM CDT
Astronomical Twilight 4:48 AM CDT 9:25 PM CDT
Moon 6:16 PM CDT (8/12) 3:36 AM CDT (8/12)
Length of Visible Light 14h 25m
Length of Day
13h 32m
Waxing Gibbous, 93% of the Moon is Illuminated
Aug 12
Waxing Gibbous
Aug 15
Full
Aug 23
Last Quarter
Aug 30
New
Sep 5
First Quarter

Hourly Weather History & Observations

Time (CDT) Temp. Heat Index Dew Point Humidity Pressure Visibility Wind Dir Wind Speed Gust Speed Precip Events Conditions
12:35 AM 78.8 °F - 78.8 °F 100% 29.93 in 10.0 mi Calm Calm - N/A   Partly Cloudy
1:15 AM 78.8 °F - 78.8 °F 100% 29.93 in 10.0 mi Calm Calm - N/A   Partly Cloudy
1:35 AM 78.8 °F - 78.8 °F 100% 29.93 in 10.0 mi Calm Calm - N/A   Clear
1:55 AM 78.8 °F - 78.8 °F 100% 29.92 in 8.0 mi Calm Calm - N/A   Partly Cloudy
2:15 AM 78.8 °F - 78.8 °F 100% 29.92 in 9.0 mi Calm Calm - N/A   Scattered Clouds
2:35 AM 77.0 °F - 77.0 °F 100% 29.92 in 7.0 mi Calm Calm - N/A   Partly Cloudy
2:55 AM 77.0 °F - 77.0 °F 100% 29.92 in 9.0 mi Calm Calm - N/A   Partly Cloudy
3:15 AM 77.0 °F - 77.0 °F 100% 29.92 in 8.0 mi Calm Calm - N/A   Scattered Clouds
3:35 AM 77.0 °F - 77.0 °F 100% 29.93 in 6.0 mi Calm Calm - N/A   Scattered Clouds
3:55 AM 78.8 °F - 78.8 °F 100% 29.92 in 8.0 mi Calm Calm - N/A   Mostly Cloudy
4:15 AM 78.8 °F - 78.8 °F 100% 29.93 in 8.0 mi Calm Calm - N/A   Overcast
5:15 AM 78.8 °F - 78.8 °F 100% 29.93 in 10.0 mi Calm Calm - N/A   Overcast
5:35 AM 78.8 °F - 78.8 °F 100% 29.94 in 10.0 mi Calm Calm - N/A   Overcast
5:55 AM 78.8 °F - 78.8 °F 100% 29.94 in 10.0 mi Calm Calm - N/A   Overcast
6:15 AM 78.8 °F - 78.8 °F 100% 29.94 in 9.0 mi Calm Calm - N/A   Mostly Cloudy
6:35 AM 78.8 °F - 78.8 °F 100% 29.95 in 7.0 mi Calm Calm - N/A   Mostly Cloudy
6:55 AM 78.8 °F - 78.8 °F 100% 29.96 in 6.0 mi Calm Calm - N/A   Scattered Clouds
7:15 AM 78.8 °F - 78.8 °F 100% 29.97 in 7.0 mi Calm Calm - N/A   Clear
7:35 AM 78.8 °F - 78.8 °F 100% 29.97 in 6.0 mi Calm Calm - N/A   Clear
7:55 AM 80.6 °F 89.3 °F 80.6 °F 100% 29.97 in 8.0 mi Calm Calm - N/A   Clear
8:15 AM 82.4 °F 96.1 °F 82.4 °F 100% 29.97 in 10.0 mi Calm Calm - N/A   Clear
8:35 AM 82.4 °F 96.1 °F 82.4 °F 100% 29.97 in 10.0 mi Calm Calm - N/A   Clear
8:55 AM 86.0 °F 111.5 °F 86.0 °F 100% 29.96 in 10.0 mi Calm Calm - N/A   Clear
9:15 AM 86.0 °F 107.7 °F 84.2 °F 94% 29.96 in 10.0 mi Calm Calm - N/A   Clear
9:35 AM 87.8 °F 111.7 °F 84.2 °F 89% 29.97 in 10.0 mi Calm Calm - N/A   Clear
9:55 AM 89.6 °F 115.0 °F 84.2 °F 84% 29.97 in 10.0 mi Calm Calm - N/A   Clear
10:15 AM 89.6 °F 115.0 °F 84.2 °F 84% 29.97 in 10.0 mi Calm Calm - N/A   Clear
10:35 AM 91.4 °F 114.3 °F 82.4 °F 75% 29.96 in 10.0 mi Calm Calm - N/A   Clear
10:55 AM 91.4 °F 114.3 °F 82.4 °F 75% 29.96 in 10.0 mi Calm Calm - N/A   Clear
11:15 AM 93.2 °F 117.1 °F 82.4 °F 71% 29.96 in 10.0 mi Calm Calm - N/A   Clear
11:35 AM 93.2 °F 117.1 °F 82.4 °F 71% 29.96 in 10.0 mi Calm Calm - N/A   Clear
11:55 AM 93.2 °F 117.1 °F 82.4 °F 71% 29.95 in 10.0 mi Calm Calm - N/A   Clear
12:15 PM 93.2 °F 113.6 °F 80.6 °F 67% 29.95 in 10.0 mi Calm Calm - N/A   Clear
12:35 PM 93.2 °F 117.1 °F 82.4 °F 71% 29.95 in 10.0 mi Calm Calm - N/A   Scattered Clouds
12:55 PM 95.0 °F 115.8 °F 80.6 °F 63% 29.95 in 10.0 mi Calm Calm - N/A   Partly Cloudy
1:15 PM 93.2 °F 113.6 °F 80.6 °F 67% 29.94 in 10.0 mi Calm Calm - N/A   Scattered Clouds
1:35 PM 95.0 °F 115.8 °F 80.6 °F 63% 29.94 in 10.0 mi Calm Calm - N/A   Scattered Clouds
1:55 PM 95.0 °F 115.8 °F 80.6 °F 63% 29.93 in 10.0 mi Calm Calm - N/A   Partly Cloudy
2:15 PM 95.0 °F 119.6 °F 82.4 °F 67% 29.92 in 10.0 mi Calm Calm - N/A   Mostly Cloudy
2:35 PM 96.8 °F 118.6 °F 80.6 °F 60% 29.92 in 10.0 mi Calm Calm - N/A   Partly Cloudy
2:55 PM 96.8 °F 118.6 °F 80.6 °F 60% 29.91 in 10.0 mi Calm Calm - N/A   Scattered Clouds
3:15 PM 95.0 °F 115.8 °F 80.6 °F 63% 29.90 in 10.0 mi Calm Calm - N/A   Partly Cloudy
3:35 PM 96.8 °F 114.8 °F 78.8 °F 56% 29.89 in 10.0 mi Calm Calm - N/A   Clear
3:55 PM 96.8 °F 118.6 °F 80.6 °F 60% 29.89 in 10.0 mi Calm Calm - N/A   Partly Cloudy
4:15 PM 96.8 °F 121.7 °F 82.4 °F 63% 29.89 in 10.0 mi Calm Calm - N/A   Partly Cloudy
4:55 PM 96.8 °F 118.6 °F 80.6 °F 60% 29.88 in 9.0 mi Calm Calm - N/A   Clear
5:15 PM 95.0 °F 115.8 °F 80.6 °F 63% 29.88 in 9.0 mi Calm Calm - N/A   Clear
5:35 PM 95.0 °F 119.6 °F 82.4 °F 67% 29.88 in 10.0 mi Calm Calm - N/A   Clear
5:55 PM 93.2 °F 120.9 °F 84.2 °F 75% 29.87 in 10.0 mi Calm Calm - N/A   Partly Cloudy
6:35 PM 93.2 °F 117.1 °F 82.4 °F 71% 29.86 in 9.0 mi Calm Calm - N/A   Clear
6:55 PM 93.2 °F 120.9 °F 84.2 °F 75% 29.86 in - Calm Calm - N/A   Clear
7:15 PM 91.4 °F 117.8 °F 84.2 °F 79% 29.86 in 10.0 mi Calm Calm - N/A   Clear
7:35 PM 91.4 °F 117.8 °F 84.2 °F 79% 29.86 in 10.0 mi Calm Calm - N/A   Clear
7:55 PM 89.6 °F 115.0 °F 84.2 °F 84% 29.87 in 10.0 mi Calm Calm - N/A   Clear
8:15 PM 87.8 °F 111.7 °F 84.2 °F 89% 29.87 in 10.0 mi Calm Calm - N/A   Clear
8:35 PM 87.8 °F 111.7 °F 84.2 °F 89% 29.88 in 10.0 mi Calm Calm - N/A   Clear
8:55 PM 87.8 °F 111.7 °F 84.2 °F 89% 29.88 in 10.0 mi Calm Calm - N/A   Clear
9:15 PM 86.0 °F 107.7 °F 84.2 °F 94% 29.88 in 10.0 mi Calm Calm - N/A   Clear
9:35 PM 86.0 °F 111.5 °F 86.0 °F 100% 29.88 in 10.0 mi Calm Calm - N/A   Clear
9:55 PM 84.2 °F 103.5 °F 84.2 °F 100% 29.88 in 10.0 mi Calm Calm - N/A   Clear
10:15 PM 84.2 °F 103.5 °F 84.2 °F 100% 29.89 in 10.0 mi Calm Calm - N/A   Clear
10:35 PM 84.2 °F 103.5 °F 84.2 °F 100% 29.88 in 10.0 mi Calm Calm - N/A   Clear
10:55 PM 84.2 °F 103.5 °F 84.2 °F 100% 29.88 in 10.0 mi Calm Calm - N/A   Clear
11:15 PM 84.2 °F 103.5 °F 84.2 °F 100% 29.88 in 10.0 mi Calm Calm - N/A   Clear
11:35 PM 84.2 °F 103.5 °F 84.2 °F 100% 29.88 in 10.0 mi Calm Calm - N/A   Clear
11:55 PM 84.2 °F 103.5 °F 84.2 °F 100% 29.88 in 10.0 mi Calm Calm - N/A   Clear